This is the latest recevied weather packets stored in our database for station/object JQ1YUX-13. If no packets are shown the sender has not sent any weather packets the latest 10 day(s).
| Time | Temp. | Humidity | Pressure | Rain* | Wind** | Luminosity | Snow |
|---|---|---|---|---|---|---|---|
| 1777357685 | 23.89° C | 72% | 1006.5 hPa | 0 mm | - | - | - |
| 1777356786 | 22.78° C | 74% | 1006.7 hPa | 0 mm | - | - | - |
| 1777355885 | 22.78° C | 75% | 1007.1 hPa | 0 mm | - | - | - |
| 1777354985 | 22.78° C | 74% | 1007.2 hPa | 0 mm | - | - | - |
| 1777354086 | 22.78° C | 73% | 1007.6 hPa | 0 mm | - | - | - |
| 1777353184 | 22.78° C | 71% | 1007.9 hPa | 0 mm | - | - | - |
| 1777352285 | 23.89° C | 70% | 1007.9 hPa | 0 mm | - | - | - |
| 1777351385 | 23.33° C | 69% | 1008.3 hPa | 0 mm | - | - | - |
| 1777350484 | 22.78° C | 70% | 1008.5 hPa | 0 mm | - | - | - |
| 1777349585 | 23.33° C | 70% | 1008.7 hPa | 0 mm | - | - | - |
| 1777348685 | 23.33° C | 71% | 1009.1 hPa | 0 mm | - | - | - |
| 1777347785 | 22.78° C | 73% | 1009.1 hPa | 0 mm | - | - | - |
| 1777346886 | 22.78° C | 71% | 1009.4 hPa | 0 mm | - | - | - |
| 1777345985 | 22.78° C | 70% | 1009.4 hPa | 0 mm | - | - | - |
| 1777345086 | 22.22° C | 69% | 1009.6 hPa | 0 mm | - | - | - |
| 1777344184 | 22.22° C | 67% | 1009.9 hPa | 0 mm | - | - | - |
| 1777343286 | 22.22° C | 68% | 1010.6 hPa | 0 mm | - | - | - |
| 1777342384 | 22.22° C | 68% | 1010.5 hPa | 0 mm | - | - | - |
| 1777341485 | 22.78° C | 68% | 1010.8 hPa | 0 mm | - | - | - |
| 1777340585 | 22.22° C | 69% | 1011 hPa | 0 mm | - | - | - |
| 1777339686 | 22.22° C | 69% | 1011.3 hPa | 0 mm | - | - | - |
| 1777338785 | 22.22° C | 69% | 1011.5 hPa | 0 mm | - | - | - |
| 1777337885 | 21.67° C | 73% | 1011.5 hPa | 0 mm | - | - | - |
| 1777336986 | 21.11° C | 72% | 1011.5 hPa | 0 mm | - | - | - |
| 1777336084 | 21.67° C | 75% | 1011.5 hPa | 0 mm | - | - | - |
* Rain latest hour (hover to see other rain measurements)
** Current wind speed in m/s (hover to see current wind gust speed)